Weather History for Columbus, GA

Change the Weather History Date:

Wednesday, October 26, 2011

  Actual Average Record
Temperature  
Mean Temperature 64 °F 63 °F  
Max Temperature 79 °F 75 °F 88 °F (2010)
Min Temperature 48 °F 52 °F 31 °F (1962)
Degree Days  
Heating Degree Days 1 4  
Month to date heating degree days 55 52  
Since 1 July heating degree days 56 55  
Cooling Degree Days 0 2  
Month to date cooling degree days 58 108  
Year to date cooling degree days 2724 2330  
Growing Degree Days 13 (Base 50)    
Moisture  
Dew Point 48 °F    
Average Humidity 61    
Maximum Humidity 86    
Minimum Humidity 35    
Precipitation  
Precipitation 0.00 in 0.08 in 1.01 in (1997)
Month to date precipitation 0.66 2.15  
Year to date precipitation 31.33 37.95  
Sea Level Pressure  
Sea Level Pressure 30.09 in    
Wind  
Wind Speed 2 mph (SSW)    
Max Wind Speed 12 mph    
Max Gust Speed 25 mph    
Visibility 10 miles    
Events      
T = Trace of Precipitation, MM = Missing Value Source: NWS Daily Summary

Daily Weather History Graph

Daily Weather History Graph

Search for Another Location

Airport:

Trip Planner

Search our weather history database for the weather conditions in past years. The results will help you decide how hot, cold, wet, or windy it might be!

Date:

Astronomy

Oct. 26, 2011 Rise Set
Actual Time 7:51 AM EDT 6:55 PM EDT
Civil Twilight 7:26 AM EDT 7:20 PM EDT
Nautical Twilight 6:57 AM EDT 7:49 PM EDT
Astronomical Twilight 6:29 AM EDT 8:17 PM EDT
Moon 7:35 AM EDT (10/26) 6:41 PM EDT (10/26)
Length of Visible Light 11h 53m
Length of Day
11h 03m
Waning Crescent, 0% of the Moon is Illuminated
Oct 26
Waning Crescent
Oct 26
New
Nov 2
First Quarter
Nov 10
Full
Nov 18
Last Quarter

Hourly Weather History & Observations

Time (EDT) Temp. Dew Point Humidity Pressure Visibility Wind Dir Wind Speed Gust Speed Precip Events Conditions
12:51 AM 57.0 °F 48.0 °F 72% 30.15 in 10.0 mi Calm Calm - N/A   Clear
1:51 AM 54.0 °F 46.9 °F 77% 30.14 in 10.0 mi Calm Calm - N/A   Clear
2:51 AM 52.0 °F 46.9 °F 83% 30.12 in 10.0 mi Calm Calm - N/A   Clear
3:51 AM 51.1 °F 46.9 °F 86% 30.12 in 10.0 mi Calm Calm - N/A   Clear
4:51 AM 51.1 °F 46.0 °F 83% 30.11 in 10.0 mi Calm Calm - N/A   Clear
5:51 AM 51.1 °F 45.0 °F 80% 30.11 in 10.0 mi Calm Calm - N/A   Clear
6:51 AM 51.1 °F 45.0 °F 80% 30.13 in 10.0 mi Calm Calm - N/A   Clear
7:51 AM 48.0 °F 45.0 °F 89% 30.14 in 10.0 mi Calm Calm - N/A   Clear
8:51 AM 51.1 °F 46.0 °F 83% 30.14 in 10.0 mi Calm Calm - N/A   Clear
9:51 AM 57.9 °F 50.0 °F 75% 30.15 in 10.0 mi Calm Calm - N/A   Clear
10:51 AM 64.9 °F 50.0 °F 58% 30.15 in 10.0 mi Calm Calm - N/A   Clear
11:51 AM 71.1 °F 50.0 °F 47% 30.14 in 10.0 mi Calm Calm - N/A   Clear
12:51 PM 73.9 °F 48.0 °F 40% 30.12 in 10.0 mi SSE 5.8 mph - N/A   Clear
1:51 PM 75.0 °F 46.0 °F 36% 30.08 in 10.0 mi WSW 4.6 mph - N/A   Scattered Clouds
2:51 PM 77.0 °F 48.9 °F 37% 30.04 in 10.0 mi SSW 6.9 mph - N/A   Scattered Clouds
3:51 PM 78.1 °F 48.9 °F 36% 30.01 in 10.0 mi West 6.9 mph - N/A   Partly Cloudy
4:51 PM 77.0 °F 48.9 °F 37% 30.00 in 10.0 mi WSW 10.4 mph - N/A   Clear
5:51 PM 75.9 °F 48.9 °F 38% 29.99 in 10.0 mi South 9.2 mph - N/A   Clear
6:51 PM 73.0 °F 48.9 °F 42% 29.98 in 10.0 mi SSW 3.5 mph - N/A   Clear
7:51 PM 70.0 °F 50.0 °F 49% 29.99 in 10.0 mi Calm Calm - N/A   Clear
8:51 PM 66.0 °F 51.1 °F 59% - 10.0 mi Calm Calm - N/A   Clear
9:51 PM 62.1 °F 52.0 °F 70% - 10.0 mi Calm Calm - N/A   Clear
10:51 PM 60.1 °F 51.1 °F 72% - 10.0 mi Calm Calm - N/A   Clear
11:51 PM 57.9 °F 51.1 °F 78% - 10.0 mi Calm Calm - N/A   Clear